Location: ???????
(52.9687°N, 53.8833°E)
Time: 18:40:41
(UTC+00:00)

Daily predictions for brighter satellites

Satellite Brightness Start Highest point End
(mag) Time Altitude Azimuth Time Altitude Azimuth Time Altitude Azimuth
Cosmos 1536 Rocket 3.5 15:12:23 10° N 15:16:44 70° ENE 15:21:03 10° SSE
ERBS 3.3 15:14:32 10° WNW 15:17:48 41° N 15:21:02 10° ENE
NOSS 0 Rocket 4.4 15:13:08 10° NNW 15:19:08 48° NE 15:25:08 10° ESE
Aureole 1 Rocket 3.6 15:13:48 10° NNW 15:20:01 68° ENE 15:24:37 10° SE
USA 116 4.4 15:16:55 10° N 15:21:23 67° WNW 15:25:15 10° SSW
MOS 1 4.3 15:17:28 10° SSE 15:23:10 76° ENE 15:28:52 10° NNW
Cosmos 2237 Rocket 3.0 15:19:02 10° NNW 15:24:17 36° NE 15:29:32 10° ESE
USA 234 3.6 15:19:18 10° ENE 15:25:48 67° N 15:32:18 10° W
Cosmos 2074 Rocket 4.0 15:19:31 10° N 15:25:50 82° ENE 15:32:05 10° SSE
YAOGAN 1 4.4 15:22:32 10° SSW 15:26:31 36° W 15:30:33 10° NNW
Cosmos 1666 4.4 15:23:53 10° SW 15:27:24 37° WNW 15:30:55 10° N
CZ-4C R/B 3.3 15:22:42 10° WSW 15:28:03 50° NNW 15:34:29 10° NE
Cosmos 1025 Rocket 2.9 15:23:45 10° N 15:28:03 77° ENE 15:32:19 10° SSE
Cosmos 1980 4.3 15:27:21 10° NNW 15:32:43 41° NE 15:37:47 11° ESE
HJ-1C 4.0 15:34:22 10° S 15:37:41 61° WSW 15:41:04 10° NNW
ATLAS 2AS CENTAUR R/B 3.0 15:30:11 10° NW 15:38:06 88° NE 15:45:22 10° SE
COSMO-SKYMED 1 4.5 15:36:17 10° N 15:40:14 35° WNW 15:44:11 10° SW
Cosmos 1939 Rocket 3.9 15:37:22 10° S 15:41:06 47° W 15:44:52 10° NNW
H-2A R/B 2.2 15:37:05 10° SE 15:41:50 51° ENE 15:46:41 10° N
Cosmos 2151 Rocket 3.5 15:37:50 10° S 15:42:15 84° E 15:46:41 10° NNE
Cosmos 1140 Rocket 4.5 15:38:06 10° NNW 15:42:43 31° NE 15:46:29 14° ESE
SJ-6B 2.9 15:38:54 10° SSE 15:43:00 67° ENE 15:47:06 10° N
Cosmos 1441 Rocket 3.7 15:39:36 10° SSE 15:43:09 36° E 15:46:40 10° NNE
Meteor 1-12 Rocket 4.3 15:37:52 10° S 15:43:29 58° E 15:49:03 10° NNE
ADEOS Rocket 3.9 15:37:20 10° NNE 15:43:50 37° E 15:50:45 10° SSE
Cosmos 2154 Rocket 4.0 15:38:11 10° N 15:44:24 71° ENE 15:50:35 10° SSE
Cosmos 2251 Rocket 4.1 15:40:55 10° NNW 15:46:15 64° WSW 15:51:33 10° S
SL-08 RB Rocket 4.3 15:43:23 10° SE 15:47:40 40° ENE 15:52:02 10° N
SL-16 R/B 3.4 15:46:43 10° NNW 15:51:35 28° NE 15:55:33 14° E
Cosmos 1544 3.2 15:48:57 10° S 15:52:26 50° E 15:55:57 10° NNE
SAR-Lupe-2 3.4 15:49:26 10° NNE 15:53:03 76° ESE 15:56:37 10° S
Cosmos 1300 Rocket 3.8 15:51:33 10° SSW 15:55:51 72° WNW 16:00:11 10° N
COSMOS 2428 2.9 15:51:31 10° NNW 15:57:14 78° WSW 16:02:54 10° SSE
Cosmos 1707 2.8 15:53:57 10° N 15:57:51 61° ENE 16:01:38 10° SSE
FREGAT/IRIS 3.9 15:57:54 10° S 16:00:33 38° W 16:03:14 10° NNW
Lacrosse 4 Rocket 4.3 15:59:51 10° W 16:01:27 12° WSW 16:03:03 10° SW
Cosmos 1674 4.1 16:01:00 10° NNE 16:03:50 20° ENE 16:04:42 19° E
SL-8 Rocket 4.3 15:59:18 10° N 16:05:19 48° ENE 16:10:16 15° SE
Cosmos 2219 Rocket 2.4 16:00:49 10° NW 16:06:24 70° WSW 16:11:57 10° SSE
CZ-2C R/B 3.3 16:07:01 15° SE 16:11:10 56° ENE 16:16:31 10° N
Cosmos 1190 Rocket 4.2 16:08:09 10° NNW 16:13:27 59° ENE 16:16:55 21° SE
Cosmos 1455 Rocket 4.0 16:14:28 24° ESE 16:15:43 27° E 16:19:30 10° NNE
Cosmos 2360 Rocket 4.4 16:11:17 10° NW 16:15:45 24° WSW 16:20:12 10° SSW
Terra 3.8 16:17:32 13° ENE 16:18:57 14° NE 16:21:24 10° NNE
Resurs 01 Rocket 1.6 16:17:08 19° SSE 16:20:11 64° ENE 16:24:36 10° N
Cosmos 1461 2.9 16:18:47 10° SSW 16:22:39 49° SE 16:26:30 10° NE
Resurs 1-3 3.5 16:19:51 15° SSE 16:23:27 85° ENE 16:27:53 10° NNW
ASTEX 1 3.6 16:19:38 10° N 16:24:32 75° W 16:29:25 10° SSW
USA 186 3.5 16:21:56 10° SSW 16:25:02 35° W 16:28:14 10° NNW
RESURS DK-1 4.3 16:22:42 10° N 16:25:38 18° NE 16:27:16 15° ENE
Cosmos 389 Rocket 2.3 16:22:55 10° NNW 16:26:24 82° ENE 16:28:02 29° SSE
COSMOS 2455 4.3 16:21:46 10° NW 16:27:04 33° WSW 16:32:21 10° S
Cosmos 2219 3.7 16:21:52 10° S 16:27:05 36° ESE 16:32:18 10° NE
CZ-2C R/B 3.7 16:24:03 10° NE 16:28:33 25° E 16:29:12 24° E
Cosmos 1626 Rocket 4.4 16:27:24 10° N 16:31:19 32° ENE 16:32:10 29° E
Meteor 1-4 Rocket 2.4 16:27:43 10° N 16:31:20 70° ENE 16:32:37 37° SSE
Cosmos 2227 Rocket 3.2 16:32:06 25° E 16:32:06 25° E 16:36:13 10° NE
Okean 1 Rocket 3.3 16:29:15 10° SSW 16:33:33 68° WNW 16:37:56 10° N
Timation 2 Rocket 4.0 16:27:34 10° SSW 16:34:10 87° WNW 16:40:32 10° NNE
Meteor 2-17 Rocket 4.4 16:30:52 10° N 16:37:01 83° ENE 16:41:52 17° SSE
Cosmos 1437 Rocket 3.1 16:34:45 10° N 16:38:28 43° ENE 16:39:02 40° E
Meteor 1-24 Rocket 4.0 16:34:31 10° N 16:40:04 52° ENE 16:42:42 30° SE
SPOT 1/Viking Rocket 4.4 16:38:57 28° E 16:40:34 34° ENE 16:45:12 10° N
Nadezhda 1 Rocket 4.4 16:34:54 10° SSW 16:40:55 64° WNW 16:46:59 10° N
Cosmos 2056 Rocket 4.0 16:39:58 24° SSE 16:42:34 39° ESE 16:47:36 10° NE
Cosmos 2297 Rocket 2.9 16:42:57 31° ESE 16:43:05 31° ESE 16:47:59 10° NE
NOSS 3-4 (A) 4.1 16:38:24 10° NW 16:45:12 63° SW 16:50:15 22° SSE
NOSS 3-4 (C) 4.1 16:38:30 10° NW 16:45:18 63° SW 16:50:19 22° SSE
Meteor 2-5 Rocket 3.7 16:39:43 10° N 16:45:30 74° ENE 16:48:51 27° SSE
Cosmos 407 Rocket 3.6 16:43:47 10° NNW 16:48:56 73° WSW 16:51:46 27° SSE
Cosmos 1602 Rocket 4.1 16:46:08 10° N 16:50:16 39° ENE 16:50:41 38° E
Cosmos 2333 Rocket 3.6 16:45:12 10° NW 16:50:19 35° WSW 16:55:26 10° S
ARGOS 3.8 16:45:52 10° S 16:51:06 53° W 16:56:23 10° NNW
ERBS 2.6 16:51:14 10° WNW 16:54:35 55° NNE 16:54:55 51° NE
MetOp-B 4.1 16:52:40 33° SSE 16:55:07 75° ENE 17:00:30 10° NNW
Cosmos 1624 Rocket 4.1 16:53:05 30° SSE 16:55:19 49° ESE 17:00:19 10° NE
NOSS 3-3 (A) 4.2 16:51:10 10° SW 16:57:18 75° NW 17:04:18 10° NE
NOSS 3-3 (C) 4.2 16:51:16 10° SW 16:57:25 75° NW 17:04:24 10° NE
Cosmos 405 Rocket 2.4 16:57:12 65° SSE 16:57:36 74° E 17:01:19 10° NNE
Okean 1-7 Rocket 4.1 16:54:18 10° NNW 16:58:39 59° W 17:01:19 23° SSW
Cosmos 614 Rocket 4.4 16:58:10 10° NNW 17:03:21 60° WSW 17:05:58 28° S
SPOT 5 3.5 17:04:41 36° ENE 17:05:12 37° ENE 17:09:43 10° N
Cosmos 1892 Rocket 4.3 17:01:00 10° NNW 17:05:22 52° W 17:07:56 23° SSW
USA 234 3.4 17:04:39 26° E 17:08:34 68° N 17:15:04 10° WNW
Cosmos 1954 Rocket 3.9 17:03:21 10° NNW 17:08:39 88° ENE 17:10:13 47° SSE
Cosmos 2237 Rocket 2.6 17:03:04 10° NW 17:08:40 58° WSW 17:11:27 29° S
Cosmos 2181 Rocket 4.0 17:06:48 10° S 17:13:02 85° W 17:19:26 10° N
Meteor 1-22 Rocket 4.4 17:11:35 40° SSE 17:13:31 57° E 17:19:31 10° NNE
Cosmos 1805 3.7 17:16:47 48° NE 17:16:47 48° NE 17:19:47 10° NNE
Spot 2 Rocket 3.6 17:14:04 36° S 17:16:05 72° WSW 17:21:10 10° NNW
Cosmos 1626 3.6 17:12:58 10° N 17:15:17 27° NE 17:15:17 27° NE
Cosmos 1980 4.4 17:11:30 10° NW 17:16:55 48° WSW 17:19:39 27° S
CZ-4C R/B 4.0 17:12:32 10° WNW 17:17:59 33° N 17:24:21 10° ENE
GENESIS II 4.2 17:14:39 10° NW 17:18:48 76° SW 17:18:53 75° SSW
ERS-1 Rocket 3.0 17:20:19 56° ESE 17:21:01 63° ENE 17:26:01 10° N
H-2A R/B 3.8 17:17:21 10° SSW 17:21:32 28° W 17:25:50 10° NW
IGS 5A 3.7 17:24:28 57° NE 17:24:28 57° NE 17:28:16 10° N
Landsat 7 3.7 17:24:06 65° ESE 17:24:31 69° ENE 17:29:17 10° N
Cosmos 1140 Rocket 3.9 17:19:45 10° NNW 17:24:51 56° WSW 17:26:31 39° SSW
Cosmos 1371 Rocket 3.9 17:19:43 10° SSW 17:25:03 90° SE 17:30:27 10° NNE
ATLAS 2AS CENTAUR R/B 4.3 17:21:55 10° NW 17:28:18 30° WSW 17:33:06 15° SSW
Cosmos 2218 Rocket 4.4 17:22:22 10° NNW 17:28:42 61° W 17:32:33 24° SSW
ADEOS Rocket 3.9 17:22:44 10° N 17:29:37 63° WNW 17:37:05 10° SW
Nadezhda 3 Rocket 4.1 17:29:57 48° ESE 17:30:23 49° E 17:36:19 10° NNE
Cosmos 1603 4.4 17:25:26 10° NNW 17:30:46 40° NE 17:31:49 36° ENE
Meteor 2-12 Rocket 4.4 17:29:58 10° N 17:36:03 65° ENE 17:37:02 56° ESE
SL-16 R/B 2.1 17:30:39 10° NNW 17:36:22 82° WSW 17:37:26 60° SSE
SL-14 R/B 3.9 17:32:59 10° N 17:36:09 51° NNE 17:36:09 51° NNE
Cosmos 676 Rocket 4.5 17:32:45 10° NNW 17:37:55 54° WSW 17:39:10 43° SSW
Cosmos 1674 3.6 17:36:03 10° NNW 17:39:32 42° W 17:39:32 42° W
Cosmos 1821 Rocket 3.8 17:42:03 10° N 17:48:18 80° ENE 17:49:18 64° SSE
Cosmos 1544 Rocket 4.4 17:51:03 39° WSW 17:52:10 49° WNW 17:56:33 10° N
Cosmos 1766 4.1 17:53:37 49° NW 17:53:37 49° NW 17:57:05 10° N
Cosmos 1455 Rocket 4.3 17:51:32 27° WSW 17:53:25 40° WNW 17:57:39 10° N
Cosmos 2082 4.1 17:56:08 49° ENE 17:56:08 49° ENE 18:00:33 10° NE
Terra 2.0 17:56:26 63° NNE 17:56:26 63° NNE 18:00:39 10° N
Resurs 01 Rocket 4.0 17:54:43 13° SW 17:57:06 19° W 18:00:17 10° NW
CARTOSAT-1 4.0 17:57:57 60° NNW 17:57:57 60° NNW 18:01:32 10° NNW
Meteor 1-21 Rocket 4.2 17:52:16 10° N 17:58:09 71° ENE 17:58:25 70° E
Cosmos 1461 4.4 17:58:15 10° W 18:01:53 33° NNW 18:05:31 10° NNE
RESURS DK-1 3.3 18:00:10 10° NNW 18:03:09 46° NNW 18:03:09 46° NNW
CZ-2C R/B 3.0 18:03:49 10° N 18:09:18 67° WNW 18:10:43 49° SW
Cosmos 1850 Rocket 4.1 18:04:22 10° NNW 18:09:19 69° W 18:09:19 69° W
Cosmos 2219 3.9 18:05:29 10° SW 18:11:06 53° NW 18:16:44 10° NNE
Cosmos 2227 Rocket 2.3 18:13:48 50° WSW 18:15:16 72° NW 18:20:59 10° NNE
Cosmos 1825 Rocket 4.4 18:11:30 10° NNW 18:14:38 46° NNW 18:14:38 46° NNW
SPOT 1/Viking Rocket 4.2 18:19:35 46° WSW 18:19:51 46° W 18:24:52 10° NNW
Cosmos 2297 Rocket 2.6 18:24:38 36° WSW 18:26:50 60° NW 18:32:28 10° NNE
ARGOS Delta rocket 4.3 18:28:07 65° N 18:28:07 65° N 18:32:37 10° N
Cosmos 1420 Rocket 4.4 18:35:39 63° NNW 18:35:39 63° NNW 18:40:31 10° NNE
Cosmos 1943 3.4 18:37:16 10° NNW 18:42:16 67° N 18:42:16 67° N
SPOT 5 4.1 18:43:55 35° WNW 18:43:55 35° WNW 18:47:49 10° NNW
Cosmos 2263 Rocket 4.1 18:51:15 18° NE 18:51:15 18° NE 18:52:57 10° NE
MOS 1 Rocket 4.1 18:43:06 10° N 18:47:42 57° NW 18:47:42 57° NW
Thor Agena Rocket 4.0 18:45:01 10° NNE 18:49:33 59° NNW 18:49:33 59° NNW
USA 234 3.2 18:52:00 72° WSW 18:52:00 72° WSW 18:58:11 10° WNW
Cosmos 1934 Rocket 4.4 18:52:44 10° NNW 18:58:36 53° W 18:58:36 53° W
Cosmos 2285 Rocket 4.2 18:59:33 10° NNW 19:05:30 66° NNE 19:05:30 66° NNE
CZ-4C R/B 3.6 19:01:49 10° NW 19:08:03 45° NNE 19:10:48 33° ENE
Cosmos 1727 Rocket 4.4 19:12:15 56° NE 19:12:15 56° NE 19:17:16 10° NNE
SL-16 R/B 4.3 19:16:07 10° WNW 19:19:18 17° W 19:19:18 17° W
Terra 4.1 19:35:19 18° WNW 19:35:19 18° WNW 19:37:36 10° NW
Cosmos 2100 Rocket 4.3 19:35:50 10° NNW 19:41:11 64° NNW 19:41:11 64° NNW
Mayak 1.2 19:41:50 10° N 19:43:17 21° N 19:43:17 21° N
Cosmos 2082 Rocket 4.3 19:48:53 10° NNW 19:53:12 21° NNE 19:56:02 15° ENE
USA 267 4.0 19:51:45 10° ENE 19:55:49 42° ENE 19:55:49 42° ENE
Cosmos 2227 Rocket 4.3 19:55:56 10° W 20:00:21 23° NNW 20:04:47 10° NNE
Cosmos 1725 Rocket 4.4 19:54:34 10° N 19:59:31 57° NNE 19:59:31 57° NNE
ATLAS CENTAUR R/B 4.1 20:04:49 18° NE 20:04:49 18° NE 20:06:00 10° NE
COSMOS 2406 4.2 19:57:47 10° NNW 20:02:44 42° NNE 20:02:44 42° NNE
Cosmos 2297 Rocket 4.5 20:07:58 10° WNW 20:12:06 20° NNW 20:16:14 10° NNE
Cosmos 2263 Rocket 3.1 20:32:55 45° N 20:32:55 45° N 20:37:14 10° NNE
Cosmos 2278 Rocket 4.4 20:42:03 15° E 20:42:03 15° E 20:44:01 10° ENE
Cosmos 1833 Rocket 3.8 20:37:22 10° NNW 20:42:25 40° NE 20:42:25 40° NE
Cosmos 2233 Rocket 4.5 20:40:01 10° NNW 20:44:45 55° NNW 20:44:45 55° NNW
SJ 16-02 3.8 20:53:03 10° N 20:56:06 18° NE 20:56:24 18° NE
CZ-4C R/B 3.0 20:50:21 10° NW 20:55:55 63° WNW 20:55:55 63° WNW
SL-16 R/B 3.3 21:02:37 44° ENE 21:03:12 45° ENE 21:09:06 10° N
Resurs 1-4 Rocket 4.0 21:02:31 10° NE 21:05:53 21° E 21:05:53 21° E
Cosmos 1607 4.3 21:08:03 58° NE 21:08:03 58° NE 21:12:55 10° NE
Lacrosse 5 3.6 21:16:55 28° ENE 21:16:55 28° ENE 21:19:19 10° ENE
H-2A R/B 4.2 21:16:16 23° NNE 21:16:16 23° NNE 21:18:20 10° N
Cosmos 1464 Rocket 4.2 21:16:49 10° N 21:22:31 71° NNE 21:22:31 71° NNE
ATLAS 5 CENTAUR R/B 4.0 21:28:38 17° ENE 21:28:38 17° ENE 21:30:15 10° ENE
Meteor 2-10 Rocket 4.2 21:29:18 59° NNE 21:29:18 59° NNE 21:33:56 10° NNE
CZ-2D R/B 3.5 21:26:50 10° NNE 21:31:01 31° E 21:31:01 31° E
Cosmos 2034 Rocket 4.1 21:31:56 10° N 21:37:39 72° NNE 21:37:39 72° NNE
Cosmos 2082 Rocket 2.6 21:32:43 10° NNW 21:37:48 60° NNE 21:37:48 60° NNE
ATLAS CENTAUR R/B 3.3 21:41:00 31° NNW 21:41:00 31° NNW 21:44:54 10° NE
USA 267 3.5 21:34:48 10° ENE 21:41:17 65° N 21:43:08 47° WNW
Cosmos 1844 Rocket 3.2 21:44:36 56° NNW 21:44:36 56° NNW 21:49:24 10° NNE
Cosmos 2221 4.3 21:48:37 30° N 21:48:37 30° N 21:50:53 10° N
MOS 1-B Rocket 4.5 21:47:25 10° NNE 21:54:10 53° E 21:54:43 51° ESE
Meteor 1-27 4.4 22:00:51 70° N 22:00:51 70° N 22:05:49 10° NNE
SL-08 R/B 4.2 22:01:51 47° ENE 22:01:51 47° ENE 22:06:22 10° N
Cosmos 1844 4.1 22:09:48 53° NW 22:09:48 53° NW 22:15:06 10° NNE
Meteor 2-11 Rocket 4.4 22:07:33 10° NNW 22:13:19 75° NW 22:13:19 75° NW
Cosmos 1898 Rocket 4.2 22:08:47 10° NNW 22:12:26 46° NNW 22:12:26 46° NNW
Cosmos 724 4.3 22:15:19 80° NW 22:15:19 80° NW 22:21:26 10° NE
ARIANE 5 R/B 4.1 22:11:36 10° NE 22:15:57 27° E 22:17:10 24° ESE
Cosmos 2263 Rocket 4.2 22:14:37 16° NW 22:16:50 19° NNW 22:20:53 10° NNE
Cosmos 1937 Rocket 3.7 22:16:02 10° NNW 22:20:34 65° N 22:20:34 65° N
Cosmos 2278 Rocket 2.1 22:23:54 81° E 22:23:54 81° E 22:29:29 10° NNE
Cosmos 1763 Rocket 4.4 22:25:16 39° ESE 22:25:39 40° ESE 22:30:36 10° NE
CZ-4B R/B 4.1 22:20:54 10° N 22:24:53 46° NW 22:24:53 46° NW
Cosmos 1833 Rocket 4.0 22:21:22 10° NW 22:24:03 27° NW 22:24:03 27° NW
Cosmos 1932 4.3 22:26:48 74° W 22:27:18 79° NW 22:33:46 10° NE
Cosmos 468 Rocket 4.5 22:27:36 51° ESE 22:27:44 52° ESE 22:32:54 10° NNE
Tsikada Rocket 3.8 22:31:48 76° SSW 22:32:21 88° W 22:38:33 10° N
Cosmos 1633 Rocket 4.3 22:29:12 10° NNW 22:31:49 35° NNW 22:31:49 35° NNW
SJ 16-02 2.7 22:30:52 10° NNW 22:33:19 32° NNW 22:33:19 32° NNW
Landsat 5 4.4 22:37:15 43° N 22:37:15 43° N 22:40:10 10° N
Cosmos 2346 Rocket 4.3 22:36:05 73° WSW 22:36:29 76° WNW 22:42:42 10° N
Lacrosse 5 rocket 2.3 22:39:58 45° ENE 22:39:58 45° ENE 22:43:14 10° E
deb Chang Zheng 4 4.4 22:34:48 10° NNE 22:38:58 45° E 22:38:58 45° E
ADEOS II 3.1 22:34:57 10° NNE 22:39:55 40° E 22:41:26 33° SE
Cosmos 972 Rocket 3.9 22:34:56 10° NNW 22:39:59 74° ENE 22:40:18 71° E
CBERS-1 3.9 22:41:11 10° NNE 22:46:20 84° ESE 22:46:33 81° SSE
SL-16 R/B 3.0 22:47:43 41° WNW 22:47:43 41° WNW 22:52:49 10° NNW
Resurs 1-4 Rocket 2.0 22:41:37 10° NNE 22:46:54 73° WNW 22:46:58 73° WNW
H-2A R/B 4.1 22:53:23 17° NW 22:53:23 17° NW 22:54:29 10° NNW
Cosmos 2150 Rocket 4.3 22:47:34 10° NNW 22:53:02 70° ENE 22:58:30 10° SE
Cosmos 2279 Rocket 4.0 22:49:57 10° N 22:56:14 81° E 22:59:21 32° SSE
Lacrosse 5 2.4 22:56:07 40° NW 22:57:35 54° N 23:02:35 10° ENE
Cosmos 372 Rocket 4.2 22:52:54 10° NNW 22:58:09 68° ENE 23:03:20 10° SE
Cosmos 1634 Rocket 4.0 22:53:02 10° NNW 22:59:17 66° W 23:00:24 56° SW
IRS P6 4.5 22:55:55 10° NNE 23:01:11 73° WNW 23:01:40 67° WSW
Cosmos 1943 Rocket 4.2 22:58:17 11° SSE 23:01:58 21° ESE 23:06:03 10° NE
Cosmos 1461 3.9 22:58:44 10° NW 23:02:36 44° NE 23:06:31 10° ESE
Cosmos 2208 Rocket 4.3 23:02:18 51° SSE 23:03:26 64° ESE 23:08:41 10° NNE
NPP 3.7 22:59:19 10° N 23:04:36 58° WNW 23:05:06 56° W
Cosmos 2298 Rocket 3.9 23:02:08 10° NNW 23:07:31 87° WSW 23:10:27 28° SSE
ATLAS 5 CENTAUR R/B 1.7 23:10:10 65° WNW 23:10:31 68° NW 23:15:36 10° NE
CZ-4B R/B 2.4 23:12:16 43° N 23:12:16 43° N 23:14:45 10° NNW
CZ-2D R/B 2.4 23:06:44 10° N 23:11:51 49° WNW 23:12:20 48° W
Cosmos 841 Rocket 3.9 23:11:52 40° SSE 23:13:28 57° ESE 23:18:34 10° NNE
Cosmos 1151 Rocket 2.9 23:14:39 72° WNW 23:14:39 72° WNW 23:18:47 10° N
Cosmos 967 Rocket 4.4 23:08:21 10° NW 23:14:45 68° SW 23:21:09 10° SSE
Cosmos 1328 Rocket 3.6 23:15:51 63° WNW 23:15:51 63° WNW 23:19:57 10° N
IRS-1D 3.6 23:11:53 10° NNE 23:17:13 68° WNW 23:18:15 54° WSW
Cosmos 2344 4.3 23:13:17 23° S 23:17:39 44° ESE 23:25:23 10° NE
Elektron 3 4.3 23:19:21 62° NNE 23:19:21 62° NNE 23:22:47 10° NE
Cosmos 1933 3.4 23:20:22 62° SE 23:20:51 70° E 23:24:53 10° NNE
ATLAS CENTAUR R/B 3.9 23:17:20 10° NW 23:20:55 20° N 23:24:21 10° NE
Cosmos 2082 Rocket 3.7 23:17:20 10° NW 23:19:35 20° WNW 23:19:35 20° WNW
IRS-1C 4.0 23:17:19 10° NNE 23:22:41 75° WNW 23:24:05 50° SW
CZ-2C R/B 3.7 23:19:27 10° NNE 23:23:21 46° E 23:24:42 32° SSE
USA 267 3.5 23:17:32 10° E 23:24:03 71° NNE 23:30:27 11° WNW
CZ-2D R/B 3.7 23:21:16 10° NNE 23:25:20 62° ESE 23:26:18 46° SSE
Gbstr 26 Del rocket 4.5 23:23:21 34° WSW 23:27:25 82° S 23:35:23 10° E
Cosmos 1933 Rocket 3.8 23:23:25 10° NNW 23:27:24 51° WNW 23:27:24 51° WNW
Cosmos 2297 3.6 23:26:25 44° SSW 23:28:21 85° ESE 23:34:05 10° NNE
Cosmos 1844 Rocket 4.5 23:26:16 16° WNW 23:28:47 21° NNW 23:33:01 10° NNE
IRIDIUM 114 4.4 23:26:42 27° S 23:29:36 75° E 23:34:50 10° N
Cosmos 192 4.3 23:28:27 48° SSW 23:29:49 83° ESE 23:34:45 10° NNE
Nadezhda 4 Rocket 4.4 23:29:32 12° S 23:35:08 59° E 23:41:09 10° NNE
Cosmos 1570 Rocket 4.0 23:35:43 45° SW 23:37:14 67° WNW 23:42:34 10° NNE
Cosmos 1515 Rocket 3.6 23:37:39 54° WSW 23:38:13 60° WNW 23:42:37 10° N
IRIDIUM 103 4.3 23:35:50 27° S 23:38:45 87° E 23:44:01 10° N
SL-08 R/B 4.5 23:40:50 27° WNW 23:40:50 27° WNW 23:44:00 10° NNW
ERS-1 4.5 23:36:24 10° N 23:41:28 67° WNW 23:43:14 40° SW
CRYOSAT 2 4.4 23:40:57 43° SW 23:42:16 58° W 23:47:05 10° N
Meteor 1-20 Rocket 4.0 23:39:07 10° NNW 23:44:36 75° W 23:50:05 10° S
Cosmos 2369 Rocket 3.3 23:41:59 13° S 23:46:43 40° ESE 23:52:00 10° NE
CENTAUR R/B 4.0 23:43:01 10° S 23:48:17 32° ESE 23:54:17 10° NE
SL-4 R/B 1.4 23:51:48 64° SSW 23:51:58 65° S 23:55:30 10° ESE
Cosmos 1606 2.6 23:54:13 46° SW 23:55:12 69° WNW 23:59:07 10° N
